Wetterdaten: Freitag, 03.08.2012
Datum Zeit Temperatur Luftfeuchte Regen Wind Richtung Richtung Taupunkt Windchill Windben
03.08.2012 00:00 15,6 C 94 % 0,0 l/m 2,4 km/h (1 Bft) N 360 14,6 C 15,6 C 3,4 km/h (1 Bft)
03.08.2012 00:05 15,5 C 94 % 0,0 l/m 2,3 km/h (1 Bft) W-NW 292 14,5 C 15,5 C 4,2 km/h (1 Bft)
03.08.2012 00:10 15,5 C 94 % 0,0 l/m 1,9 km/h (1 Bft) W 270 14,5 C 15,5 C 2,6 km/h (1 Bft)
03.08.2012 00:15 15,4 C 94 % 0,0 l/m 2,1 km/h (1 Bft) N 360 14,4 C 15,4 C 0,0 km/h (0 Bft)
03.08.2012 00:20 15,3 C 94 % 0,0 l/m 2,4 km/h (1 Bft) W 270 14,3 C 15,4 C 4,3 km/h (1 Bft)
03.08.2012 00:25 15,2 C 94 % 0,0 l/m 2,1 km/h (1 Bft) N 360 14,2 C 15,2 C 1,8 km/h (1 Bft)
03.08.2012 00:30 15,2 C 94 % 0,0 l/m 1,4 km/h (1 Bft) O-SO 112 14,2 C 15,2 C 0,0 km/h (0 Bft)
03.08.2012 00:35 15,2 C 94 % 0,0 l/m 1,0 km/h (0 Bft) N 360 14,2 C 15,2 C 0,0 km/h (0 Bft)
03.08.2012 00:40 15,2 C 94 % 0,0 l/m 0,8 km/h (0 Bft) N 360 14,2 C 15,1 C 1,9 km/h (1 Bft)
03.08.2012 00:45 15,2 C 94 % 0,0 l/m 0,8 km/h (0 Bft) W-NW 292 14,2 C 15,1 C 2,9 km/h (1 Bft)
03.08.2012 00:50 15,2 C 94 % 0,0 l/m 1,1 km/h (1 Bft) W-SW 247 14,2 C 15,1 C 4,5 km/h (1 Bft)
03.08.2012 00:55 15,2 C 94 % 0,0 l/m 1,0 km/h (0 Bft) W-SW 247 14,2 C 15,2 C 0,0 km/h (0 Bft)
03.08.2012 01:00 15,3 C 94 % 0,0 l/m 0,3 km/h (0 Bft) SO 135 14,3 C 15,2 C 0,0 km/h (0 Bft)
03.08.2012 01:05 15,4 C 94 % 0,0 l/m 1,3 km/h (1 Bft) SO 135 14,4 C 15,2 C 2,7 km/h (1 Bft)
03.08.2012 01:10 15,4 C 94 % 0,0 l/m 2,3 km/h (1 Bft) W 270 14,4 C 15,3 C 5,6 km/h (1 Bft)
03.08.2012 01:15 15,4 C 94 % 0,7 l/m 3,1 km/h (1 Bft) N-NW 337 14,4 C 15,3 C 2,6 km/h (1 Bft)
03.08.2012 01:20 15,4 C 94 % 0,0 l/m 3,4 km/h (1 Bft) N-NO 22 14,4 C 15,3 C 6,1 km/h (2 Bft)
03.08.2012 01:25 15,3 C 94 % 0,0 l/m 2,7 km/h (1 Bft) S 180 14,3 C 15,3 C 2,7 km/h (1 Bft)
03.08.2012 01:30 15,4 C 94 % 0,0 l/m 2,6 km/h (1 Bft) SO 135 14,4 C 15,3 C 2,3 km/h (1 Bft)
03.08.2012 01:35 15,4 C 94 % 0,0 l/m 2,4 km/h (1 Bft) S-SO 157 14,4 C 15,3 C 5,8 km/h (2 Bft)
03.08.2012 01:40 15,5 C 94 % 0,0 l/m 2,4 km/h (1 Bft) NO 45 14,5 C 15,3 C 0,0 km/h (0 Bft)
03.08.2012 01:45 15,5 C 94 % 0,0 l/m 2,4 km/h (1 Bft) SO 135 14,5 C 15,4 C 5,3 km/h (1 Bft)
03.08.2012 01:50 15,5 C 94 % 0,0 l/m 2,7 km/h (1 Bft) O 90 14,5 C 15,4 C 3,2 km/h (1 Bft)
03.08.2012 01:55 15,4 C 94 % 0,0 l/m 2,1 km/h (1 Bft) N-NO 22 14,4 C 15,4 C 1,8 km/h (1 Bft)
03.08.2012 02:00 15,5 C 94 % 0,0 l/m 1,0 km/h (0 Bft) N 360 14,5 C 15,4 C 0,0 km/h (0 Bft)
03.08.2012 02:05 15,4 C 94 % 2,7 l/m 1,3 km/h (1 Bft) N-NO 22 14,4 C 15,4 C 7,4 km/h (2 Bft)
03.08.2012 02:10 15,4 C 94 % 1,4 l/m 2,1 km/h (1 Bft) O-SO 112 14,4 C 15,4 C 7,6 km/h (2 Bft)
03.08.2012 02:15 15,4 C 94 % 0,0 l/m 3,2 km/h (1 Bft) SO 135 14,4 C 15,4 C 3,7 km/h (1 Bft)
03.08.2012 02:20 15,4 C 94 % 0,0 l/m 2,7 km/h (1 Bft) NW 315 14,4 C 15,4 C 1,9 km/h (1 Bft)
03.08.2012 02:25 15,4 C 94 % 0,0 l/m 1,4 km/h (1 Bft) N 360 14,4 C 15,4 C 0,0 km/h (0 Bft)
03.08.2012 02:30 15,4 C 94 % 0,7 l/m 0,6 km/h (0 Bft) N-NW 337 14,4 C 15,4 C 0,0 km/h (0 Bft)
03.08.2012 02:35 15,4 C 94 % 0,0 l/m 1,0 km/h (0 Bft) S-SO 157 14,4 C 15,4 C 3,4 km/h (1 Bft)
03.08.2012 02:40 15,4 C 94 % 0,0 l/m 1,8 km/h (1 Bft) SO 135 14,4 C 15,4 C 2,6 km/h (1 Bft)
03.08.2012 02:45 15,4 C 94 % 0,0 l/m 2,6 km/h (1 Bft) S 180 14,4 C 15,4 C 3,2 km/h (1 Bft)
03.08.2012 02:50 15,4 C 94 % 0,7 l/m 2,3 km/h (1 Bft) SO 135 14,4 C 15,4 C 1,8 km/h (1 Bft)
03.08.2012 02:55 15,4 C 94 % 0,0 l/m 2,3 km/h (1 Bft) N 360 14,4 C 15,4 C 0,0 km/h (0 Bft)
03.08.2012 03:00 15,4 C 94 % 0,7 l/m 1,4 km/h (1 Bft) W-NW 292 14,4 C 15,4 C 0,0 km/h (0 Bft)
03.08.2012 03:05 15,4 C 94 % 0,0 l/m 0,3 km/h (0 Bft) NO 45 14,4 C 15,4 C 1,8 km/h (1 Bft)
03.08.2012 03:10 15,4 C 94 % 0,7 l/m 0,5 km/h (0 Bft) N-NO 22 14,4 C 15,4 C 0,0 km/h (0 Bft)
03.08.2012 03:15 15,4 C 94 % 0,0 l/m 0,6 km/h (0 Bft) N 360 14,4 C 15,3 C 1,9 km/h (1 Bft)
03.08.2012 03:20 15,4 C 94 % 0,0 l/m 1,0 km/h (0 Bft) S-SW 202 14,4 C 15,3 C 0,0 km/h (0 Bft)
03.08.2012 03:25 15,4 C 94 % 0,0 l/m 0,8 km/h (0 Bft) N-NO 22 14,4 C 15,3 C 0,0 km/h (0 Bft)
03.08.2012 03:30 15,4 C 94 % 0,0 l/m 0,2 km/h (0 Bft) S 180 14,4 C 15,3 C 2,1 km/h (1 Bft)
03.08.2012 03:35 15,4 C 94 % 0,0 l/m 0,2 km/h (0 Bft) N-NO 22 14,4 C 15,3 C 0,0 km/h (0 Bft)
03.08.2012 03:40 15,4 C 94 % 0,0 l/m 0,8 km/h (0 Bft) N-NW 337 14,4 C 15,4 C 2,7 km/h (1 Bft)
03.08.2012 03:45 15,4 C 94 % 0,0 l/m 0,6 km/h (0 Bft) NW 315 14,4 C 15,3 C 0,0 km/h (0 Bft)
03.08.2012 03:50 15,4 C 94 % 0,0 l/m 0,3 km/h (0 Bft) S-SW 202 14,4 C 15,3 C 1,8 km/h (1 Bft)
03.08.2012 03:55 15,4 C 94 % 0,0 l/m 0,3 km/h (0 Bft) N 360 14,4 C 15,3 C 2,7 km/h (1 Bft)
03.08.2012 04:00 15,4 C 94 % 0,0 l/m 0,8 km/h (0 Bft) N-NW 337 14,4 C 15,3 C 1,9 km/h (1 Bft)
03.08.2012 04:05 15,3 C 94 % 0,0 l/m 1,4 km/h (1 Bft) NW 315 14,3 C 15,3 C 2,4 km/h (1 Bft)
03.08.2012 04:10 15,3 C 94 % 0,0 l/m 1,1 km/h (1 Bft) W-SW 247 14,3 C 15,3 C 0,0 km/h (0 Bft)
03.08.2012 04:15 15,3 C 94 % 0,0 l/m 0,6 km/h (0 Bft) W 270 14,3 C 15,3 C 2,4 km/h (1 Bft)
03.08.2012 04:20 15,4 C 94 % 0,0 l/m 0,2 km/h (0 Bft) S 180 14,4 C 15,3 C 0,0 km/h (0 Bft)
03.08.2012 04:25 15,4 C 94 % 0,0 l/m 0,2 km/h (0 Bft) S 180 14,4 C 15,2 C 0,0 km/h (0 Bft)
03.08.2012 04:30 15,3 C 94 % 0,0 l/m 0,0 km/h (0 Bft) O-SO 112 14,3 C 15,2 C 0,0 km/h (0 Bft)
03.08.2012 04:35 15,3 C 94 % 0,7 l/m 0,0 km/h (0 Bft) N-NW 337 14,3 C 15,2 C 0,0 km/h (0 Bft)
03.08.2012 04:40 15,2 C 94 % 0,0 l/m 0,6 km/h (0 Bft) W-NW 292 14,2 C 15,2 C 2,3 km/h (1 Bft)
03.08.2012 04:45 15,2 C 94 % 0,0 l/m 1,6 km/h (1 Bft) W 270 14,2 C 15,2 C 3,4 km/h (1 Bft)
03.08.2012 04:50 15,2 C 94 % 0,0 l/m 2,1 km/h (1 Bft) NW 315 14,2 C 15,1 C 3,4 km/h (1 Bft)
03.08.2012 04:55 15,2 C 94 % 0,0 l/m 1,6 km/h (1 Bft) S 180 14,2 C 15,1 C 0,0 km/h (0 Bft)
03.08.2012 05:00 15,3 C 94 % 0,0 l/m 0,6 km/h (0 Bft) S 180 14,3 C 15,1 C 0,0 km/h (0 Bft)
03.08.2012 05:05 15,3 C 94 % 0,0 l/m 0,0 km/h (0 Bft) O-SO 112 14,3 C 15,2 C 1,8 km/h (1 Bft)
03.08.2012 05:10 15,3 C 94 % 0,0 l/m 0,6 km/h (0 Bft) W-NW 292 14,3 C 15,2 C 2,1 km/h (1 Bft)
03.08.2012 05:15 15,3 C 94 % 0,0 l/m 1,1 km/h (1 Bft) W-SW 247 14,3 C 15,2 C 1,9 km/h (1 Bft)
03.08.2012 05:20 15,3 C 94 % 0,0 l/m 1,1 km/h (1 Bft) S-SO 157 14,3 C 15,2 C 2,1 km/h (1 Bft)
03.08.2012 05:25 15,4 C 94 % 0,0 l/m 1,6 km/h (1 Bft) O-SO 112 14,4 C 15,2 C 1,8 km/h (1 Bft)
03.08.2012 05:30 15,4 C 94 % 0,0 l/m 1,6 km/h (1 Bft) S 180 14,4 C 15,3 C 0,0 km/h (0 Bft)
03.08.2012 05:35 15,3 C 94 % 0,7 l/m 0,8 km/h (0 Bft) N 360 14,3 C 15,2 C 0,0 km/h (0 Bft)
03.08.2012 05:40 15,3 C 94 % 0,0 l/m 0,3 km/h (0 Bft) N-NW 337 14,3 C 15,2 C 0,0 km/h (0 Bft)
03.08.2012 05:45 14,9 C 95 % 0,7 l/m 0,6 km/h (0 Bft) SO 135 14,1 C 15,1 C 2,9 km/h (1 Bft)
03.08.2012 05:50 14,8 C 95 % 0,0 l/m 1,3 km/h (1 Bft) N 360 14,0 C 15,0 C 1,8 km/h (1 Bft)
03.08.2012 05:55 14,6 C 95 % 0,0 l/m 1,6 km/h (1 Bft) NO 45 13,8 C 14,8 C 2,1 km/h (1 Bft)
03.08.2012 06:00 14,6 C 95 % 0,0 l/m 0,6 km/h (0 Bft) N-NO 22 13,8 C 14,6 C 0,0 km/h (0 Bft)
03.08.2012 06:05 14,6 C 95 % 0,7 l/m 0,3 km/h (0 Bft) N-NO 22 13,8 C 14,6 C 0,0 km/h (0 Bft)
03.08.2012 06:10 14,5 C 95 % 0,0 l/m 0,3 km/h (0 Bft) NO 45 13,7 C 14,5 C 2,4 km/h (1 Bft)
03.08.2012 06:15 14,5 C 95 % 0,0 l/m 0,5 km/h (0 Bft) NO 45 13,7 C 14,4 C 0,0 km/h (0 Bft)
03.08.2012 06:20 14,5 C 95 % 0,0 l/m 0,5 km/h (0 Bft) N-NO 22 13,7 C 14,4 C 0,0 km/h (0 Bft)
03.08.2012 06:25 14,5 C 95 % 0,0 l/m 0,0 km/h (0 Bft) N-NO 22 13,7 C 14,4 C 0,0 km/h (0 Bft)
03.08.2012 06:30 14,5 C 95 % 0,0 l/m 0,0 km/h (0 Bft) N 360 13,7 C 14,4 C 0,0 km/h (0 Bft)
03.08.2012 06:35 14,5 C 95 % 0,0 l/m 0,0 km/h (0 Bft) NO 45 13,7 C 14,4 C 0,0 km/h (0 Bft)
03.08.2012 06:40 14,6 C 95 % 0,0 l/m 0,0 km/h (0 Bft) N 360 13,8 C 14,4 C 0,0 km/h (0 Bft)
03.08.2012 06:45 14,6 C 95 % 0,0 l/m 0,0 km/h (0 Bft) NO 45 13,8 C 14,5 C 0,0 km/h (0 Bft)
03.08.2012 06:50 14,6 C 95 % 0,0 l/m 0,0 km/h (0 Bft) N-NO 22 13,8 C 14,5 C 0,0 km/h (0 Bft)
03.08.2012 06:55 14,7 C 95 % 0,0 l/m 0,0 km/h (0 Bft) N-NO 22 13,9 C 14,6 C 0,0 km/h (0 Bft)
03.08.2012 07:00 14,9 C 95 % 0,0 l/m 0,2 km/h (0 Bft) N-NO 22 14,1 C 14,7 C 0,0 km/h (0 Bft)
03.08.2012 07:05 15,0 C 94 % 0,0 l/m 1,0 km/h (0 Bft) N 360 14,0 C 14,9 C 3,2 km/h (1 Bft)
03.08.2012 07:10 15,0 C 94 % 0,0 l/m 1,6 km/h (1 Bft) N 360 14,0 C 15,0 C 3,5 km/h (1 Bft)
03.08.2012 07:15 15,1 C 94 % 0,0 l/m 1,4 km/h (1 Bft) O-SO 112 14,1 C 15,0 C 0,0 km/h (0 Bft)
03.08.2012 07:20 15,1 C 94 % 0,0 l/m 0,8 km/h (0 Bft) O-SO 112 14,1 C 15,1 C 0,0 km/h (0 Bft)
03.08.2012 07:25 15,1 C 94 % 0,0 l/m 0,3 km/h (0 Bft) N-NW 337 14,1 C 15,1 C 2,1 km/h (1 Bft)
03.08.2012 07:30 15,1 C 94 % 0,0 l/m 0,6 km/h (0 Bft) N 360 14,1 C 15,1 C 2,1 km/h (1 Bft)
03.08.2012 07:35 15,2 C 94 % 0,0 l/m 0,6 km/h (0 Bft) N-NW 337 14,2 C 15,2 C 0,0 km/h (0 Bft)
03.08.2012 07:40 15,4 C 95 % 0,0 l/m 0,2 km/h (0 Bft) N-NW 337 14,6 C 15,3 C 0,0 km/h (0 Bft)
03.08.2012 07:45 15,4 C 95 % 0,0 l/m 0,0 km/h (0 Bft) NO 45 14,6 C 15,4 C 0,0 km/h (0 Bft)
03.08.2012 07:50 15,5 C 95 % 0,0 l/m 0,0 km/h (0 Bft) O 90 14,7 C 15,5 C 0,0 km/h (0 Bft)
03.08.2012 07:55 15,6 C 95 % 0,0 l/m 0,0 km/h (0 Bft) W-SW 247 14,8 C 15,6 C 0,0 km/h (0 Bft)
03.08.2012 08:00 15,7 C 95 % 0,0 l/m 0,0 km/h (0 Bft) N-NO 22 14,9 C 15,7 C 0,0 km/h (0 Bft)
03.08.2012 08:05 15,7 C 95 % 0,0 l/m 0,0 km/h (0 Bft) N-NW 337 14,9 C 15,8 C 0,0 km/h (0 Bft)
03.08.2012 08:10 15,8 C 95 % 0,0 l/m 0,0 km/h (0 Bft) N-NW 337 15,0 C 15,9 C 0,0 km/h (0 Bft)
03.08.2012 08:15 15,9 C 95 % 0,0 l/m 0,0 km/h (0 Bft) NW 315 15,1 C 16,0 C 0,0 km/h (0 Bft)
03.08.2012 08:20 15,8 C 95 % 0,0 l/m 0,0 km/h (0 Bft) W-NW 292 15,0 C 15,9 C 0,0 km/h (0 Bft)
03.08.2012 08:25 15,7 C 95 % 0,0 l/m 1,4 km/h (1 Bft) W-NW 292 14,9 C 15,8 C 2,7 km/h (1 Bft)
03.08.2012 08:30 15,7 C 94 % 0,0 l/m 2,4 km/h (1 Bft) N-NW 337 14,7 C 15,8 C 0,0 km/h (0 Bft)
03.08.2012 08:35 15,8 C 95 % 0,0 l/m 1,8 km/h (1 Bft) W-SW 247 15,0 C 15,9 C 2,4 km/h (1 Bft)
03.08.2012 08:40 15,9 C 95 % 0,0 l/m 1,3 km/h (1 Bft) W-SW 247 15,1 C 15,9 C 2,1 km/h (1 Bft)
03.08.2012 08:45 16,0 C 93 % 0,0 l/m 1,9 km/h (1 Bft) W-SW 247 14,9 C 16,1 C 3,2 km/h (1 Bft)
03.08.2012 08:50 16,1 C 93 % 0,0 l/m 1,6 km/h (1 Bft) W 270 15,0 C 16,2 C 1,6 km/h (1 Bft)
03.08.2012 08:55 16,3 C 93 % 0,0 l/m 0,5 km/h (0 Bft) S-SO 157 15,2 C 16,4 C 0,0 km/h (0 Bft)
03.08.2012 09:00 16,4 C 93 % 0,0 l/m 0,0 km/h (0 Bft) S 180 15,3 C 16,5 C 0,0 km/h (0 Bft)
03.08.2012 09:05 16,5 C 93 % 0,0 l/m 0,3 km/h (0 Bft) S-SO 157 15,4 C 16,6 C 1,9 km/h (1 Bft)
03.08.2012 09:10 16,6 C 93 % 0,0 l/m 0,6 km/h (0 Bft) SO 135 15,5 C 16,7 C 1,9 km/h (1 Bft)
03.08.2012 09:15 16,7 C 93 % 0,0 l/m 0,5 km/h (0 Bft) W-SW 247 15,6 C 17,0 C 0,0 km/h (0 Bft)
03.08.2012 09:20 16,9 C 93 % 0,0 l/m 0,3 km/h (0 Bft) S-SO 157 15,8 C 17,2 C 0,0 km/h (0 Bft)
03.08.2012 09:25 17,0 C 93 % 0,0 l/m 0,0 km/h (0 Bft) W-SW 247 15,9 C 17,7 C 0,0 km/h (0 Bft)
03.08.2012 09:30 17,2 C 93 % 0,0 l/m 0,0 km/h (0 Bft) W-NW 292 16,1 C 18,0 C 0,0 km/h (0 Bft)
03.08.2012 09:35 17,2 C 93 % 0,0 l/m 0,2 km/h (0 Bft) N-NO 22 16,1 C 18,2 C 1,6 km/h (1 Bft)
03.08.2012 09:40 17,2 C 93 % 0,0 l/m 0,5 km/h (0 Bft) W-SW 247 16,1 C 18,4 C 0,0 km/h (0 Bft)
03.08.2012 09:45 17,6 C 93 % 0,0 l/m 0,5 km/h (0 Bft) S-SO 157 16,5 C 18,4 C 2,6 km/h (1 Bft)
03.08.2012 09:50 18,4 C 93 % 0,0 l/m 0,6 km/h (0 Bft) O-SO 112 17,2 C 18,9 C 2,6 km/h (1 Bft)
03.08.2012 09:55 20,1 C 92 % 0,0 l/m 0,8 km/h (0 Bft) W-NW 292 18,9 C 20,9 C 1,8 km/h (1 Bft)
03.08.2012 10:00 20,9 C 91 % 0,0 l/m 0,6 km/h (0 Bft) N-NW 337 20,2 C 23,1 C 2,4 km/h (1 Bft)
03.08.2012 10:05 20,2 C 89 % 0,0 l/m 1,3 km/h (1 Bft) S 180 18,3 C 24,4 C 0,0 km/h (0 Bft)
03.08.2012 10:10 19,6 C 89 % 0,0 l/m 1,8 km/h (1 Bft) S 180 17,7 C 23,9 C 0,0 km/h (0 Bft)
03.08.2012 10:15 21,3 C 87 % 0,0 l/m 0,8 km/h (0 Bft) O-SO 112 19,0 C 25,1 C 1,8 km/h (1 Bft)
03.08.2012 10:20 21,6 C 87 % 0,0 l/m 1,3 km/h (1 Bft) SO 135 19,3 C 25,2 C 5,8 km/h (2 Bft)
03.08.2012 10:25 20,7 C 86 % 0,0 l/m 1,6 km/h (1 Bft) W 270 18,3 C 25,3 C 2,1 km/h (1 Bft)
03.08.2012 10:30 19,9 C 86 % 0,0 l/m 1,4 km/h (1 Bft) O-SO 112 17,5 C 25,0 C 4,5 km/h (1 Bft)
03.08.2012 10:35 19,6 C 87 % 0,0 l/m 1,3 km/h (1 Bft) W-SW 247 17,4 C 24,0 C 2,4 km/h (1 Bft)
03.08.2012 10:40 19,3 C 87 % 0,0 l/m 1,0 km/h (0 Bft) O-SO 112 17,1 C 23,4 C 0,0 km/h (0 Bft)
03.08.2012 10:45 19,2 C 88 % 0,0 l/m 0,3 km/h (0 Bft) NO 45 17,2 C 23,1 C 1,6 km/h (1 Bft)
03.08.2012 10:50 19,2 C 88 % 0,0 l/m 0,0 km/h (0 Bft) NO 45 17,2 C 22,7 C 0,0 km/h (0 Bft)
03.08.2012 10:55 18,9 C 88 % 0,0 l/m 0,2 km/h (0 Bft) O-SO 112 16,9 C 22,1 C 0,0 km/h (0 Bft)
03.08.2012 11:00 18,7 C 89 % 0,0 l/m 0,5 km/h (0 Bft) O 90 16,8 C 21,6 C 0,0 km/h (0 Bft)
03.08.2012 11:05 18,2 C 88 % 0,0 l/m 0,3 km/h (0 Bft) N 360 16,2 C 21,1 C 2,7 km/h (1 Bft)
03.08.2012 11:10 18,4 C 89 % 0,0 l/m 0,8 km/h (0 Bft) N-NO 22 16,6 C 20,7 C 1,8 km/h (1 Bft)
03.08.2012 11:15 18,7 C 89 % 0,0 l/m 1,0 km/h (0 Bft) N-NO 22 16,8 C 20,6 C 0,0 km/h (0 Bft)
03.08.2012 11:20 18,8 C 89 % 0,0 l/m 0,6 km/h (0 Bft) O 90 16,9 C 20,9 C 3,4 km/h (1 Bft)
03.08.2012 11:25 18,9 C 89 % 0,0 l/m 0,2 km/h (0 Bft) N 360 17,0 C 21,4 C 0,0 km/h (0 Bft)
03.08.2012 11:30 19,6 C 89 % 0,0 l/m 0,8 km/h (0 Bft) O-SO 112 17,7 C 21,9 C 4,0 km/h (1 Bft)
03.08.2012 11:35 19,7 C 89 % 0,0 l/m 2,1 km/h (1 Bft) SO 135 17,8 C 22,1 C 4,8 km/h (1 Bft)
03.08.2012 11:40 19,7 C 89 % 0,0 l/m 2,9 km/h (1 Bft) NO 45 17,8 C 21,9 C 5,5 km/h (1 Bft)
03.08.2012 11:45 20,2 C 89 % 0,0 l/m 2,9 km/h (1 Bft) O-SO 112 18,3 C 22,1 C 5,1 km/h (1 Bft)
03.08.2012 11:50 20,5 C 89 % 0,0 l/m 3,5 km/h (1 Bft) SO 135 18,6 C 22,3 C 6,0 km/h (2 Bft)
03.08.2012 11:55 20,9 C 89 % 0,0 l/m 4,5 km/h (1 Bft) S 180 19,0 C 22,3 C 2,4 km/h (1 Bft)
03.08.2012 12:00 20,7 C 89 % 0,0 l/m 4,2 km/h (1 Bft) S 180 18,8 C 22,4 C 3,1 km/h (1 Bft)
03.08.2012 12:05 20,8 C 89 % 0,0 l/m 2,6 km/h (1 Bft) S 180 18,9 C 22,4 C 2,9 km/h (1 Bft)
03.08.2012 12:10 21,0 C 89 % 0,0 l/m 2,1 km/h (1 Bft) O-SO 112 19,1 C 22,6 C 1,8 km/h (1 Bft)
03.08.2012 12:15 22,0 C 89 % 0,0 l/m 2,1 km/h (1 Bft) S 180 20,1 C 23,2 C 5,5 km/h (1 Bft)
03.08.2012 12:20 22,0 C 89 % 0,0 l/m 2,7 km/h (1 Bft) S 180 20,1 C 23,6 C 5,6 km/h (1 Bft)
03.08.2012 12:25 22,1 C 88 % 0,0 l/m 2,9 km/h (1 Bft) S-SW 202 20,0 C 24,0 C 1,9 km/h (1 Bft)
03.08.2012 12:30 21,5 C 88 % 0,0 l/m 2,7 km/h (1 Bft) O-SO 112 19,4 C 23,8 C 2,1 km/h (1 Bft)
03.08.2012 12:35 20,6 C 88 % 0,0 l/m 1,8 km/h (1 Bft) N-NO 22 18,5 C 23,6 C 2,6 km/h (1 Bft)
03.08.2012 12:40 20,9 C 89 % 0,0 l/m 0,6 km/h (0 Bft) NO 45 19,0 C 23,6 C 1,6 km/h (1 Bft)
03.08.2012 12:45 22,1 C 88 % 0,0 l/m 1,0 km/h (0 Bft) S-SO 157 20,0 C 24,1 C 0,0 km/h (0 Bft)
03.08.2012 12:50 23,0 C 88 % 0,0 l/m 1,1 km/h (1 Bft) S-SW 202 20,9 C 25,0 C 0,0 km/h (0 Bft)
03.08.2012 12:55 23,1 C 87 % 0,0 l/m 1,3 km/h (1 Bft) S 180 20,8 C 26,3 C 2,4 km/h (1 Bft)
03.08.2012 13:00 22,6 C 88 % 0,0 l/m 1,8 km/h (1 Bft) S-SW 202 20,5 C 25,9 C 2,4 km/h (1 Bft)
03.08.2012 13:05 22,4 C 88 % 0,0 l/m 1,6 km/h (1 Bft) S-SO 157 20,3 C 25,2 C 3,4 km/h (1 Bft)
03.08.2012 13:10 22,2 C 87 % 0,0 l/m 1,8 km/h (1 Bft) SO 135 19,9 C 25,1 C 5,5 km/h (1 Bft)
03.08.2012 13:15 22,4 C 88 % 0,0 l/m 2,9 km/h (1 Bft) O-SO 112 20,3 C 24,7 C 2,7 km/h (1 Bft)
03.08.2012 13:20 22,3 C 88 % 0,0 l/m 2,6 km/h (1 Bft) O-NO 67 20,2 C 24,5 C 2,1 km/h (1 Bft)
03.08.2012 13:25 22,0 C 87 % 0,0 l/m 2,4 km/h (1 Bft) S 180 19,7 C 24,3 C 2,7 km/h (1 Bft)
03.08.2012 13:30 21,3 C 87 % 0,0 l/m 1,8 km/h (1 Bft) SO 135 19,0 C 24,0 C 2,3 km/h (1 Bft)
03.08.2012 13:35 20,5 C 87 % 0,0 l/m 0,5 km/h (0 Bft) O-NO 67 18,3 C 23,5 C 0,0 km/h (0 Bft)
03.08.2012 13:40 20,0 C 88 % 0,0 l/m 0,2 km/h (0 Bft) NO 45 17,9 C 23,3 C 0,0 km/h (0 Bft)
03.08.2012 13:45 20,1 C 88 % 0,0 l/m 1,1 km/h (1 Bft) SO 135 18,0 C 22,6 C 4,8 km/h (1 Bft)
03.08.2012 13:50 20,1 C 88 % 0,0 l/m 2,1 km/h (1 Bft) SO 135 18,0 C 22,0 C 4,7 km/h (1 Bft)
03.08.2012 13:55 20,1 C 88 % 0,0 l/m 2,7 km/h (1 Bft) O-SO 112 18,0 C 21,3 C 1,8 km/h (1 Bft)
03.08.2012 14:00 20,1 C 88 % 0,0 l/m 2,4 km/h (1 Bft) O-SO 112 18,0 C 21,1 C 2,1 km/h (1 Bft)
03.08.2012 14:05 20,3 C 89 % 0,0 l/m 2,1 km/h (1 Bft) O 90 18,4 C 20,7 C 1,8 km/h (1 Bft)
03.08.2012 14:10 20,5 C 89 % 0,0 l/m 1,8 km/h (1 Bft) NO 45 18,6 C 20,9 C 1,8 km/h (1 Bft)
03.08.2012 14:15 20,5 C 89 % 0,0 l/m 0,8 km/h (0 Bft) O-SO 112 18,6 C 21,4 C 0,0 km/h (0 Bft)
03.08.2012 14:20 21,2 C 89 % 0,0 l/m 0,6 km/h (0 Bft) N-NW 337 19,3 C 21,9 C 2,7 km/h (1 Bft)
03.08.2012 14:25 21,6 C 88 % 0,0 l/m 1,9 km/h (1 Bft) S 180 19,5 C 22,0 C 3,9 km/h (1 Bft)
03.08.2012 14:30 22,0 C 87 % 0,0 l/m 2,4 km/h (1 Bft) O-SO 112 19,7 C 22,3 C 2,4 km/h (1 Bft)
03.08.2012 14:35 21,9 C 87 % 0,0 l/m 2,1 km/h (1 Bft) W-SW 247 19,6 C 22,9 C 1,9 km/h (1 Bft)
03.08.2012 14:40 23,0 C 85 % 0,0 l/m 2,7 km/h (1 Bft) S 180 20,3 C 23,3 C 5,8 km/h (2 Bft)
03.08.2012 14:45 22,6 C 84 % 0,0 l/m 3,2 km/h (1 Bft) O 90 19,8 C 24,2 C 0,0 km/h (0 Bft)
03.08.2012 14:50 22,9 C 83 % 0,0 l/m 2,9 km/h (1 Bft) W-SW 247 19,9 C 24,7 C 5,3 km/h (1 Bft)
03.08.2012 14:55 22,9 C 82 % 0,0 l/m 1,9 km/h (1 Bft) S-SO 157 19,7 C 24,8 C 1,9 km/h (1 Bft)
03.08.2012 15:00 23,4 C 80 % 0,0 l/m 3,2 km/h (1 Bft) S 180 19,7 C 24,9 C 2,4 km/h (1 Bft)
03.08.2012 15:05 23,2 C 77 % 0,0 l/m 2,9 km/h (1 Bft) S-SW 202 18,9 C 25,9 C 2,3 km/h (1 Bft)
03.08.2012 15:10 22,0 C 78 % 0,0 l/m 2,1 km/h (1 Bft) NW 315 18,0 C 25,5 C 2,7 km/h (1 Bft)
03.08.2012 15:15 23,1 C 77 % 0,0 l/m 1,6 km/h (1 Bft) O-SO 112 18,8 C 24,8 C 0,0 km/h (0 Bft)
03.08.2012 15:20 24,2 C 74 % 0,0 l/m 1,9 km/h (1 Bft) S-SW 202 19,3 C 26,2 C 4,2 km/h (1 Bft)
03.08.2012 15:25 25,0 C 63 % 0,0 l/m 1,9 km/h (1 Bft) W-NW 292 17,5 C 27,7 C 2,4 km/h (1 Bft)
03.08.2012 15:30 25,6 C 64 % 0,0 l/m 2,1 km/h (1 Bft) O-SO 112 18,3 C 28,5 C 1,9 km/h (1 Bft)
03.08.2012 15:35 23,6 C 60 % 0,0 l/m 2,3 km/h (1 Bft) O 90 15,4 C 29,2 C 4,5 km/h (1 Bft)
03.08.2012 15:40 22,5 C 67 % 0,0 l/m 2,7 km/h (1 Bft) NO 45 16,1 C 27,6 C 2,9 km/h (1 Bft)
03.08.2012 15:45 21,9 C 71 % 0,0 l/m 3,5 km/h (1 Bft) W 270 16,4 C 25,1 C 3,7 km/h (1 Bft)
03.08.2012 15:50 21,9 C 73 % 0,0 l/m 3,5 km/h (1 Bft) N 360 16,8 C 24,1 C 2,1 km/h (1 Bft)
03.08.2012 15:55 21,8 C 71 % 0,0 l/m 3,2 km/h (1 Bft) W-NW 292 16,3 C 23,4 C 7,1 km/h (2 Bft)
03.08.2012 16:00 22,0 C 69 % 0,0 l/m 3,5 km/h (1 Bft) W 270 16,0 C 23,1 C 5,8 km/h (2 Bft)
03.08.2012 16:05 21,9 C 68 % 0,0 l/m 4,0 km/h (1 Bft) N 360 15,7 C 23,6 C 8,4 km/h (2 Bft)
03.08.2012 16:10 21,9 C 71 % 0,0 l/m 4,2 km/h (1 Bft) N-NO 22 16,4 C 23,4 C 5,5 km/h (1 Bft)
03.08.2012 16:15 22,5 C 66 % 0,0 l/m 4,5 km/h (1 Bft) W 270 15,8 C 23,8 C 5,8 km/h (2 Bft)
03.08.2012 16:20 22,9 C 64 % 0,0 l/m 4,5 km/h (1 Bft) W-SW 247 15,7 C 24,6 C 6,4 km/h (2 Bft)
03.08.2012 16:25 23,2 C 63 % 0,0 l/m 3,5 km/h (1 Bft) W-NW 292 15,8 C 25,9 C 3,1 km/h (1 Bft)
03.08.2012 16:30 23,4 C 63 % 0,0 l/m 3,2 km/h (1 Bft) W-NW 292 15,9 C 26,4 C 8,0 km/h (2 Bft)
03.08.2012 16:35 23,6 C 62 % 0,0 l/m 3,9 km/h (1 Bft) W-NW 292 15,9 C 26,5 C 7,9 km/h (2 Bft)
03.08.2012 16:40 22,8 C 64 % 0,0 l/m 4,0 km/h (1 Bft) N 360 15,6 C 26,4 C 8,7 km/h (2 Bft)
03.08.2012 16:45 22,3 C 64 % 0,0 l/m 3,9 km/h (1 Bft) W-NW 292 15,2 C 25,4 C 4,7 km/h (1 Bft)
03.08.2012 16:50 22,3 C 65 % 0,0 l/m 3,9 km/h (1 Bft) W 270 15,4 C 25,3 C 5,3 km/h (1 Bft)
03.08.2012 16:55 22,6 C 66 % 0,0 l/m 2,4 km/h (1 Bft) NO 45 15,9 C 26,6 C 3,7 km/h (1 Bft)
03.08.2012 17:00 22,5 C 66 % 0,0 l/m 1,9 km/h (1 Bft) N-NO 22 15,8 C 26,6 C 2,6 km/h (1 Bft)
03.08.2012 17:05 22,2 C 67 % 0,0 l/m 2,3 km/h (1 Bft) N-NO 22 15,8 C 27,1 C 4,0 km/h (1 Bft)
03.08.2012 17:10 21,9 C 69 % 0,0 l/m 2,7 km/h (1 Bft) SW 225 15,9 C 26,1 C 9,3 km/h (2 Bft)
03.08.2012 17:15 21,6 C 71 % 0,0 l/m 3,9 km/h (1 Bft) W-NW 292 16,1 C 24,5 C 5,0 km/h (1 Bft)
03.08.2012 17:20 21,5 C 71 % 0,0 l/m 3,5 km/h (1 Bft) N 360 16,0 C 23,9 C 9,3 km/h (2 Bft)
03.08.2012 17:25 21,2 C 72 % 0,0 l/m 2,4 km/h (1 Bft) W-SW 247 15,9 C 23,1 C 0,0 km/h (0 Bft)
03.08.2012 17:30 21,0 C 73 % 0,0 l/m 1,9 km/h (1 Bft) NW 315 16,0 C 22,9 C 0,0 km/h (0 Bft)
03.08.2012 17:35 21,1 C 73 % 0,0 l/m 1,3 km/h (1 Bft) N-NO 22 16,1 C 22,6 C 0,0 km/h (0 Bft)
03.08.2012 17:40 21,1 C 73 % 0,0 l/m 0,6 km/h (0 Bft) N-NO 22 16,1 C 22,5 C 0,0 km/h (0 Bft)
03.08.2012 17:45 21,4 C 74 % 0,0 l/m 0,2 km/h (0 Bft) N-NO 22 16,6 C 22,9 C 0,0 km/h (0 Bft)
03.08.2012 17:50 21,8 C 73 % 0,0 l/m 1,4 km/h (1 Bft) S 180 16,7 C 23,6 C 2,7 km/h (1 Bft)
03.08.2012 17:55 21,5 C 71 % 0,0 l/m 3,1 km/h (1 Bft) N-NW 337 16,0 C 25,0 C 0,0 km/h (0 Bft)
03.08.2012 18:00 21,2 C 71 % 0,0 l/m 2,9 km/h (1 Bft) S 180 15,7 C 25,3 C 2,1 km/h (1 Bft)
03.08.2012 18:05 20,8 C 72 % 0,0 l/m 2,1 km/h (1 Bft) W-NW 292 15,6 C 24,6 C 4,5 km/h (1 Bft)
03.08.2012 18:10 20,7 C 72 % 0,0 l/m 2,1 km/h (1 Bft) N-NW 337 15,5 C 23,6 C 7,4 km/h (2 Bft)
03.08.2012 18:15 20,9 C 73 % 0,0 l/m 2,6 km/h (1 Bft) N-NW 337 15,9 C 22,9 C 0,0 km/h (0 Bft)
03.08.2012 18:20 21,1 C 73 % 0,0 l/m 1,9 km/h (1 Bft) N 360 16,1 C 23,8 C 2,6 km/h (1 Bft)
03.08.2012 18:25 20,9 C 73 % 0,0 l/m 1,3 km/h (1 Bft) N-NO 22 15,9 C 24,4 C 3,7 km/h (1 Bft)
03.08.2012 18:30 20,6 C 73 % 0,0 l/m 1,4 km/h (1 Bft) O 90 15,6 C 23,9 C 1,6 km/h (1 Bft)
03.08.2012 18:35 20,2 C 75 % 0,0 l/m 0,5 km/h (0 Bft) N-NW 337 15,6 C 22,7 C 0,0 km/h (0 Bft)
03.08.2012 18:40 19,9 C 75 % 0,0 l/m 0,2 km/h (0 Bft) O 90 15,3 C 22,3 C 0,0 km/h (0 Bft)
03.08.2012 18:45 19,5 C 77 % 0,0 l/m 0,0 km/h (0 Bft) N-NO 22 15,4 C 21,6 C 0,0 km/h (0 Bft)
03.08.2012 18:50 19,5 C 77 % 0,0 l/m 0,0 km/h (0 Bft) N-NO 22 15,4 C 21,1 C 0,0 km/h (0 Bft)
03.08.2012 18:55 19,3 C 77 % 0,0 l/m 0,0 km/h (0 Bft) NO 45 15,2 C 20,6 C 0,0 km/h (0 Bft)
03.08.2012 19:00 19,2 C 78 % 0,0 l/m 0,0 km/h (0 Bft) N-NW 337 15,3 C 20,4 C 0,0 km/h (0 Bft)
03.08.2012 19:05 19,1 C 79 % 0,0 l/m 0,0 km/h (0 Bft) N 360 15,4 C 20,1 C 0,0 km/h (0 Bft)
03.08.2012 19:10 19,0 C 79 % 0,0 l/m 0,0 km/h (0 Bft) N 360 15,3 C 20,1 C 0,0 km/h (0 Bft)
03.08.2012 19:15 19,2 C 80 % 0,0 l/m 0,0 km/h (0 Bft) N 360 15,7 C 21,3 C 0,0 km/h (0 Bft)
03.08.2012 19:20 19,2 C 80 % 0,0 l/m 0,0 km/h (0 Bft) NO 45 15,7 C 21,8 C 0,0 km/h (0 Bft)
03.08.2012 19:25 19,2 C 80 % 0,0 l/m 0,0 km/h (0 Bft) N 360 15,7 C 21,3 C 0,0 km/h (0 Bft)
03.08.2012 19:30 19,2 C 81 % 0,0 l/m 0,0 km/h (0 Bft) N 360 15,9 C 20,9 C 0,0 km/h (0 Bft)
03.08.2012 19:35 18,9 C 82 % 0,0 l/m 0,0 km/h (0 Bft) N 360 15,8 C 20,5 C 0,0 km/h (0 Bft)
03.08.2012 19:40 18,7 C 82 % 0,0 l/m 0,0 km/h (0 Bft) N-NO 22 15,6 C 20,3 C 0,0 km/h (0 Bft)
03.08.2012 19:45 18,5 C 82 % 0,0 l/m 0,0 km/h (0 Bft) O-NO 67 15,4 C 19,7 C 0,0 km/h (0 Bft)
03.08.2012 19:50 18,5 C 83 % 0,0 l/m 0,0 km/h (0 Bft) N-NW 337 15,6 C 19,3 C 1,8 km/h (1 Bft)
03.08.2012 19:55 18,3 C 83 % 0,0 l/m 0,2 km/h (0 Bft) NO 45 15,4 C 18,8 C 0,0 km/h (0 Bft)
03.08.2012 20:00 18,2 C 84 % 0,0 l/m 0,2 km/h (0 Bft) NO 45 15,4 C 18,6 C 0,0 km/h (0 Bft)
03.08.2012 20:05 18,1 C 84 % 0,0 l/m 0,0 km/h (0 Bft) N 360 15,4 C 18,4 C 0,0 km/h (0 Bft)
03.08.2012 20:10 18,0 C 84 % 0,0 l/m 0,0 km/h (0 Bft) N 360 15,3 C 18,2 C 0,0 km/h (0 Bft)
03.08.2012 20:15 17,8 C 85 % 0,0 l/m 0,0 km/h (0 Bft) NW 315 15,2 C 18,0 C 0,0 km/h (0 Bft)
03.08.2012 20:20 17,7 C 85 % 0,0 l/m 0,0 km/h (0 Bft) NO 45 15,1 C 17,8 C 0,0 km/h (0 Bft)
03.08.2012 20:25 17,7 C 85 % 0,0 l/m 0,0 km/h (0 Bft) N-NW 337 15,1 C 17,6 C 0,0 km/h (0 Bft)
03.08.2012 20:26 17,7 C 85 % 0,0 l/m 0,0 km/h (0 Bft) N-NW 337 15,1 C 17,6 C 0,0 km/h (0 Bft)
03.08.2012 20:30 17,8 C 86 % 0,0 l/m 0,0 km/h (0 Bft) NO 45 15,4 C 17,6 C 0,0 km/h (0 Bft)
03.08.2012 20:35 17,6 C 86 % 0,0 l/m 0,0 km/h (0 Bft) O-NO 67 15,2 C 17,5 C 0,0 km/h (0 Bft)
03.08.2012 20:40 17,6 C 86 % 0,0 l/m 0,0 km/h (0 Bft) N-NO 22 15,2 C 17,5 C 0,0 km/h (0 Bft)
03.08.2012 20:45 17,6 C 86 % 0,0 l/m 0,0 km/h (0 Bft) NO 45 15,2 C 17,4 C 0,0 km/h (0 Bft)
03.08.2012 20:50 17,4 C 86 % 0,0 l/m 0,2 km/h (0 Bft) N 360 15,0 C 17,3 C 2,9 km/h (1 Bft)
03.08.2012 20:55 17,2 C 86 % 0,0 l/m 0,5 km/h (0 Bft) N-NW 337 14,8 C 17,0 C 4,0 km/h (1 Bft)
03.08.2012 21:00 17,2 C 86 % 0,0 l/m 0,8 km/h (0 Bft) N 360 14,8 C 17,0 C 0,0 km/h (0 Bft)
03.08.2012 21:05 16,7 C 87 % 0,0 l/m 0,6 km/h (0 Bft) O 90 14,5 C 16,7 C 0,0 km/h (0 Bft)
03.08.2012 21:10 16,5 C 87 % 0,0 l/m 0,0 km/h (0 Bft) N 360 14,3 C 16,4 C 0,0 km/h (0 Bft)
03.08.2012 21:15 16,4 C 87 % 0,0 l/m 0,2 km/h (0 Bft) N-NO 22 14,2 C 16,1 C 1,9 km/h (1 Bft)
03.08.2012 21:20 16,4 C 88 % 0,0 l/m 0,2 km/h (0 Bft) S-SO 157 14,4 C 16,0 C 0,0 km/h (0 Bft)
03.08.2012 21:25 16,3 C 88 % 0,0 l/m 0,2 km/h (0 Bft) N 360 14,3 C 15,9 C 0,0 km/h (0 Bft)
03.08.2012 21:30 16,4 C 88 % 0,0 l/m 0,0 km/h (0 Bft) NO 45 14,4 C 15,9 C 0,0 km/h (0 Bft)
03.08.2012 21:35 16,3 C 88 % 0,0 l/m 0,3 km/h (0 Bft) N-NO 22 14,3 C 16,0 C 2,9 km/h (1 Bft)
03.08.2012 21:40 16,2 C 88 % 0,0 l/m 0,6 km/h (0 Bft) O-SO 112 14,2 C 16,0 C 0,0 km/h (0 Bft)
03.08.2012 21:45 16,0 C 88 % 0,0 l/m 0,3 km/h (0 Bft) N-NW 337 14,0 C 15,8 C 0,0 km/h (0 Bft)
03.08.2012 21:50 15,9 C 88 % 0,0 l/m 0,0 km/h (0 Bft) N-NO 22 13,9 C 15,7 C 0,0 km/h (0 Bft)
03.08.2012 21:55 15,9 C 89 % 0,0 l/m 0,2 km/h (0 Bft) NO 45 14,1 C 15,7 C 0,0 km/h (0 Bft)
03.08.2012 22:00 15,9 C 89 % 0,0 l/m 0,2 km/h (0 Bft) N-NO 22 14,1 C 15,6 C 0,0 km/h (0 Bft)
03.08.2012 22:05 15,8 C 89 % 0,0 l/m 0,0 km/h (0 Bft) N 360 14,0 C 15,5 C 0,0 km/h (0 Bft)
03.08.2012 22:10 15,7 C 89 % 0,0 l/m 0,0 km/h (0 Bft) N 360 13,9 C 15,3 C 0,0 km/h (0 Bft)
03.08.2012 22:15 15,6 C 89 % 0,0 l/m 0,2 km/h (0 Bft) O-NO 67 13,8 C 15,1 C 0,0 km/h (0 Bft)
03.08.2012 22:20 15,5 C 89 % 0,0 l/m 0,3 km/h (0 Bft) N-NO 22 13,7 C 15,1 C 0,0 km/h (0 Bft)
03.08.2012 22:25 15,5 C 89 % 0,0 l/m 0,2 km/h (0 Bft) NO 45 13,7 C 15,1 C 0,0 km/h (0 Bft)
03.08.2012 22:30 15,6 C 89 % 0,0 l/m 0,0 km/h (0 Bft) N 360 13,8 C 15,1 C 0,0 km/h (0 Bft)
03.08.2012 22:35 15,6 C 89 % 0,0 l/m 0,0 km/h (0 Bft) NO 45 13,8 C 15,1 C 0,0 km/h (0 Bft)
03.08.2012 22:40 15,7 C 89 % 0,0 l/m 0,0 km/h (0 Bft) N-NO 22 13,9 C 15,2 C 0,0 km/h (0 Bft)
03.08.2012 22:45 15,9 C 90 % 0,0 l/m 0,5 km/h (0 Bft) N-NO 22 14,3 C 15,4 C 1,8 km/h (1 Bft)
03.08.2012 22:50 16,0 C 89 % 0,0 l/m 0,6 km/h (0 Bft) N-NO 22 14,2 C 15,5 C 0,0 km/h (0 Bft)
03.08.2012 22:55 16,1 C 89 % 0,0 l/m 0,5 km/h (0 Bft) O-SO 112 14,3 C 15,7 C 0,0 km/h (0 Bft)
03.08.2012 23:00 15,9 C 90 % 0,0 l/m 0,0 km/h (0 Bft) NO 45 14,3 C 15,7 C 0,0 km/h (0 Bft)
03.08.2012 23:05 15,8 C 89 % 0,0 l/m 0,3 km/h (0 Bft) NO 45 14,0 C 15,5 C 1,8 km/h (1 Bft)
03.08.2012 23:10 15,7 C 89 % 0,0 l/m 0,6 km/h (0 Bft) NO 45 13,9 C 15,5 C 2,3 km/h (1 Bft)
03.08.2012 23:15 15,7 C 89 % 0,0 l/m 1,1 km/h (1 Bft) NO 45 13,9 C 15,5 C 0,0 km/h (0 Bft)
03.08.2012 23:20 15,6 C 89 % 0,0 l/m 0,8 km/h (0 Bft) N-NO 22 13,8 C 15,5 C 0,0 km/h (0 Bft)
03.08.2012 23:25 15,7 C 89 % 0,0 l/m 0,3 km/h (0 Bft) S 180 13,9 C 15,5 C 3,5 km/h (1 Bft)
03.08.2012 23:30 15,7 C 89 % 0,0 l/m 0,8 km/h (0 Bft) N-NO 22 13,9 C 15,5 C 0,0 km/h (0 Bft)
03.08.2012 23:35 15,6 C 89 % 0,0 l/m 0,6 km/h (0 Bft) S 180 13,8 C 15,3 C 0,0 km/h (0 Bft)
03.08.2012 23:40 15,5 C 89 % 0,0 l/m 0,2 km/h (0 Bft) O-SO 112 13,7 C 15,3 C 3,1 km/h (1 Bft)
03.08.2012 23:45 15,4 C 89 % 0,0 l/m 0,8 km/h (0 Bft) NO 45 13,6 C 15,2 C 0,0 km/h (0 Bft)
03.08.2012 23:50 15,5 C 89 % 0,0 l/m 0,8 km/h (0 Bft) N 360 13,7 C 15,2 C 1,6 km/h (1 Bft)
03.08.2012 23:55 15,6 C 89 % 0,0 l/m 0,0 km/h (0 Bft) N-NO 22 13,8 C 15,2 C 0,0 km/h (0 Bft)
_ Min-Zeit 06:35 15:35 - 23:55 - - 23:45 06:40 23:55
Minimum _ 14,5 C 60 % - 0,0 km/h (0 Bft) - - 13,6 C 14,4 C 0,0 km/h (0 Bft)
_ Max-Zeit 15:30 08:40 02:05 16:20 - - 12:50 15:35 17:20
Maximum _ 25,6 C 95 % 2,7 l/m 4,5 km/h
W-SW (1 Bft)
- - 20,9 C 29,2 C 9,3 km/h
N (2 Bft)
Durchschnitt _ 18,0 C 87 % #10,3 l/m 1,2 km/h (1 Bft) S - 15,7 C 18,9 C 1,8 km/h (1 Bft)